CAPE
198 640 678 976 1158 1340 1059 1125 1207 1187 1084 1386 1448 1358 1400 1540 1785 1875 1235 1159 1508 1387 1290 1256 1399 1155 1027 893 947 904 750 953 778 498 793 790 1675 1538 1333 1812 1929 1740 944
585 519 929 1094 1152 1095 1341 1218 1375 1457 1332 1212 1309 1460 1173 804 1064 1058 1316 1082 1205 1165 1047 1200 1109 1144 1141 964 1025 1048 1035 1005 914 898 660 505 1223 1217 1743 1846 1515 1100 1067
868 1015 906 993 884 803 1065 1353 1328 1569 1592 1323 1178 1414 1514 1392 1287 756 1038 1043 959 950 1107 1080 1208 1114 1011 938 917 835 905 1135 961 865 716 896 725 1115 1184 1549 1447 1351 1474
1450 1376 1169 1172 1074 1002 989 1220 1373 1421 1585 1621 1490 1388 1425 1389 1273 1322 729 1087 1037 1007 1111 1106 1174 1217 1234 1138 926 837 1173 641 669 828 535 573 806 739 1024 853 809 1094 1154
1782 1717 1612 1534 1560 1503 1453 1560 1627 1579 1586 1761 1561 1487 1589 1526 1174 1175 1331 1157 1044 1112 1014 1195 1200 1501 1479 1261 1067 607 770 881 487 707 655 410 368 509 916 1182 962 967 1736
1790 1733 1702 1769 1811 1773 1690 1790 1943 1899 1638 1535 1411 1480 1704 1496 923 651 784 1053 1381 1183 1144 1122 1219 995 895 715 598 374 549 1175 922 662 475 325 598 634 908 1052 848 854 1111
1715 1663 1677 1693 1679 1589 1565 1514 1510 1454 1584 1561 1668 1587 1563 1530 878 435 323 571 659 739 994 1007 1056 732 734 1094 922 541 298 277 465 868 880 761 743 1036 1210 1236 1119 1054 1140
2031 1695 1641 1638 1526 1412 1306 1249 1153 1713 1622 1499 1526 1509 1380 969 423 231 83 141 588 747 754 958 1021 916 881 989 1089 1258 1081 1158 1032 736 786 1002 1137 1197 1180 1419 1366 1283 927
1080 1080 1036 1011 1007 961 875 982 1170 1029 1067 1159 1237 1235 960 563 117 23 37 238 425 737 863 889 974 988 987 747 588 574 641 785 605 522 359 360 357 386 573 1228 899 856 674
627 538 652 717 785 764 638 548 436 397 461 351 346 347 506 462 187 0 0 56 185 346 481 630 538 654 620 416 619 512 414 559 857 889 369 68 35 41 26 249 785 608 599
642 689 650 462 430 450 636 545 525 527 529 441 177 4 4 3 4 0 0 2 24 79 299 373 410 151 122 30 30 449 897 635 713 921 825 347 87 42 6 2 10 102 336
795 718 316 450 314 246 323 426 611 451 234 74 75 35 5 6 0 0 0 0 0 0 0 29 41 0 0 0 0 0 12 51 471 770 700 307 11 2 4 6 4 1 0
930 786 675 500 460 604 369 423 252 360 234 188 48 20 6 4 2 0 0 0 0 1 0 0 0 0 0 0 1 0 0 5 105 109 15 2 2 3 3 2 2 2 2
1018 794 684 527 355 316 253 202 212 171 114 12 7 4 3 11 5 4 2 0 0 0 0 3 0 0 0 0 0 0 2 1 1 1 1 2 3 4 2 2 3 3 0
917 406 190 63 172 30 0 2 4 0 0 18 14 14 14 10 2 0 0 2 3 1 3 3 2 2 0 0 1 2 1 0 0 0 1 2 3 2 1 2 0 1 2
487 210 20 0 0 1 2 0 0 0 0 0 0 0 1 0 0 0 0 0 0 0 1 2 3 4 1 1 0 2 4 3 3 0 1 2 1 1 0 0 0 4 1
418 102 0 0 1 10 9 2 0 0 0 0 0 0 0 0 0 0 0 0 0 0 0 0 0 0 1 4 3 2 5 4 3 2 2 3 1 0 0 0 0 1 0
287 9 0 5 9 9 10 22 28 12 3 1 0 0 0 0 0 0 0 0 10 4 58 32 41 60 35 28 13 1 1 2 3 3 2 1 0 0 0 0 0 0 0
107 3 3 21 22 17 21 30 26 25 29 4 0 0 0 0 0 0 0 31 79 58 102 89 96 93 54 20 7 4 3 3 2 3 2 1 0 0 0 0 0 0 0
4 7 10 20 11 15 29 29 23 26 37 27 11 2 0 2 1 3 1 24 98 90 67 170 71 40 35 2 2 1 1 2 3 3 2 1 0 0 0 0 0 0 0
2 12 13 34 29 28 30 26 27 33 42 38 23 6 0 0 20 39 39 90 31 45 43 23 6 0 0 0 2 7 5 10 1 2 6 0 0 0 0 0 0 0 0
3 6 13 15 47 40 27 32 47 49 39 8 0 0 0 0 1 20 54 15 14 5 9 10 6 4 3 0 0 0 0 3 7 7 2 0 0 0 0 0 0 0 0
0 0 16 20 33 31 25 44 48 36 20 6 0 0 0 0 0 0 1 2 3 1 0 0 0 1 0 0 0 0 0 0 0 0 0 0 0 0 0 0 0 0 0
0 9 18 12 34 24 23 32 30 11 15 7 2 1 0 0 0 0 0 0 0 0 0 0 0 0 0 0 0 0 0 0 0 0 0 0 0 0 0 0 0 0 0
9 21 37 35 31 23 29 27 19 12 1 2 2 1 4 2 1 1 0 0 0 0 0 0 0 0 0 0 0 0 0 0 0 0 0 0 0 0 0 0 0 0 0
18 23 22 17 22 19 18 12 9 4 1 1 4 3 0 2 3 6 7 5 0 0 0 0 0 2 3 7 8 0 0 0 0 0 0 0 0 0 0 0 0 0 0
CIN
-67 -53 -35 -17 -12 -16 -20 -20 -17 -9 -11 -12 -4 -3 -3 -2 -2 -4 -13 -5 -1 -1 -3 -2 -0 -1 -1 -1 -1 -0 -2 -2 -2 -2 -3 -1 -1 -2 -1 -1 -1 -1 -61
-62 -98 -44 -22 -15 -12 -19 -23 -20 -14 -13 -19 -13 -5 -5 -11 -4 -5 -2 -11 -0 -2 -6 -1 -2 -1 -3 -6 -5 -6 -11 -3 -6 -3 -1 -2 -3 -0 -1 -0 -1 -1 -1
-74 -64 -70 -54 -69 -46 -17 -18 -17 -12 -13 -7 -12 -10 -12 -8 -10 -13 -7 -2 -6 -1 -2 -1 -1 -1 -1 -3 -1 -1 -2 -4 -2 -0 -2 -2 -9 -4 -1 -2 -0 -1 -0
-63 -66 -62 -64 -33 -32 -25 -6 -10 -12 -7 -5 -4 -6 -5 -13 -5 -7 -7 -5 -7 -1 -0 -0 -1 -2 -1 -1 -1 -0 -2 -5 -2 -1 -1 -1 -2 -3 -4 -2 -2 -13 -4
-76 -79 -73 -57 -33 -25 -21 -13 -4 -6 -11 -7 -4 -8 -4 -1 -1 -1 -1 -4 -1 -5 -4 -0 -1 -1 -1 -4 -3 -4 -4 -1 -2 -2 -2 -2 -2 -2 -2 -4 -6 -4 -0
-81 -75 -66 -57 -32 -24 -20 -15 -3 -3 -7 -8 -18 -6 -0 -5 -12 -25 -25 -2 -4 -5 -3 -1 -1 -18 -18 -28 -38 -46 -20 -1 -2 -2 -2 -1 -3 -4 -2 -7 -1 -1 -0
-74 -72 -66 -62 -44 -38 -27 -20 -18 -21 -10 -8 -2 -2 -2 -1 -18 -65 -69 -35 -5 -2 -2 -1 -2 -1 -4 -1 -29 -57 -75 -77 -49 -7 -1 -3 -3 -1 -1 -0 -3 -2 -1
-45 -63 -54 -46 -39 -35 -25 -19 -28 -0 -0 -1 -0 -0 -0 -6 -58 -91 -119 -85 -6 -1 -1 -1 -1 -1 -1 -3 -2 -0 -1 -1 -18 -27 -10 -5 -1 -0 -0 -1 -0 -0 -0
-133 -126 -118 -109 -88 -73 -56 -28 -12 -16 -14 -5 -0 -0 -4 -16 -79 -125 -114 -2 -1 -0 -1 -0 -0 -1 -2 -21 -20 -10 -2 -1 -39 -47 -64 -74 -85 -63 -30 -0 -0 -0 -0
-208 -197 -157 -132 -95 -85 -100 -102 -108 -92 -68 -70 -45 -27 -6 -5 -16 -0 -0 -43 -2 -2 -3 -0 -2 -1 -7 -29 -13 -12 -13 -6 -1 -0 -78 -150 -161 -153 -136 -53 -1 -0 -0
-169 -140 -135 -158 -153 -138 -97 -99 -84 -70 -62 -60 -105 -0 -0 -0 -0 -0 -0 -7 -53 -38 -4 -1 -1 -41 -72 -115 -140 -8 -1 -19 -3 -1 -0 -15 -85 -119 -79 -0 -74 -45 -0
-131 -139 -226 -153 -174 -211 -173 -125 -65 -70 -104 -176 -160 -167 -0 -0 -0 -0 -0 -0 -0 -0 -0 -29 -29 -0 -0 -0 -0 -0 -182 -133 -13 -0 -0 -14 -77 -0 -0 -0 -0 -0 -0
-109 -115 -119 -123 -111 -81 -121 -90 -122 -55 -87 -109 -185 -95 -0 -0 -0 -0 -0 -0 -0 -0 -0 -0 -0 -0 -0 -0 -0 -0 -0 -42 -52 -35 -82 -0 -0 -0 -0 -0 -0 -0 -0
-79 -91 -82 -83 -127 -127 -136 -148 -126 -140 -154 -0 -1 -2 -3 -0 -0 -0 -0 -0 -0 -0 -0 -0 -0 -0 -0 -0 -0 -0 -0 -0 -0 -0 -0 -0 -0 -0 -0 -0 -0 -0 -0
-64 -105 -179 -300 -174 -84 -0 -0 -3 -0 -5 -89 -0 -0 -0 -0 -0 -0 -0 -0 -0 -0 -0 -0 -0 -0 -0 -0 -0 -0 -0 -0 -0 -0 -0 -0 -0 -0 -0 -0 -0 -1 -0
-68 -105 -320 -0 -0 -1 -1 -0 -0 -0 -0 -0 -0 -1 -0 -0 -0 -0 -0 -0 -0 -0 -0 -0 -0 -0 -0 -0 -0 -0 -0 -0 -0 -0 -0 -0 -0 -0 -0 -0 -0 -1 -1
-37 -134 -148 -0 -2 -0 -0 -1 -0 -0 -0 -0 -0 -0 -0 -0 -0 -0 -0 -0 -0 -0 -0 -0 -0 -0 -0 -0 -0 -0 -0 -0 -0 -0 -0 -0 -0 -0 -0 -0 -0 -0 -0
-55 -259 -0 -1 -1 -2 -2 -0 -1 -1 -0 -0 -0 -0 -0 -0 -0 -0 -0 -0 -24 -32 -81 -95 -91 -60 -73 -31 -62 -0 -0 -0 -0 -0 -0 -0 -0 -0 -0 -0 -0 -0 -0
-158 -1 -1 -1 -1 -2 -1 -1 -0 -1 -1 -1 -0 -0 -0 -0 -0 -0 -0 -88 -69 -87 -51 -57 -41 -68 -128 -150 -74 -0 -0 -0 -0 -0 -0 -0 -0 -0 -0 -0 -0 -0 -0
-1 -2 -1 -1 -2 -1 -1 -1 -1 -1 -1 -1 -4 -5 -0 -0 -0 -0 -1 -71 -31 -46 -65 -23 -70 -109 -133 -270 -1 -4 -1 -0 -0 -1 -0 -0 -0 -0 -0 -0 -0 -0 -0
-2 -1 -1 -2 -2 -2 -2 -1 -1 -1 -0 -2 -1 -2 -0 -1 -0 -22 -4 -6 -45 -43 -70 -111 -183 -0 -0 -0 -1 -1 -2 -1 -2 -1 -0 -0 -0 -0 -0 -0 -0 -0 -0
-1 -2 -1 -1 -2 -1 -1 -1 -1 -2 -1 -3 -0 -0 -0 -0 -1 -1 -2 -1 -1 -0 -1 -108 -164 -0 -1 -0 -0 -0 -0 -1 -1 -1 -1 -0 -0 -0 -0 -0 -0 -0 -0
-0 -1 -1 -2 -2 -7 -2 -1 -1 -1 -2 -2 -0 -0 -0 -0 -0 -0 -1 -0 -0 -0 -0 -0 -0 -0 -0 -0 -0 -0 -0 -0 -0 -0 -0 -0 -0 -0 -0 -0 -0 -0 -0
-0 -2 -2 -4 -2 -1 -2 -2 -1 -9 -4 -2 -1 -1 -0 -0 -0 -0 -0 -0 -0 -0 -0 -0 -0 -0 -0 -0 -0 -0 -0 -0 -0 -0 -0 -0 -0 -0 -0 -0 -0 -0 -0
-3 -2 -2 -2 -1 -1 -2 -3 -1 -2 -1 -1 -1 -1 -1 -3 -0 -0 -0 -0 -0 -0 -0 -0 -0 -0 -0 -0 -0 -0 -0 -0 -0 -0 -0 -0 -0 -0 -0 -0 -0 -0 -0
-1 -2 -3 -1 -3 -3 -1 -1 -2 -2 -1 -1 -1 -2 -0 -3 -2 -2 -2 -1 -0 -0 -0 -0 -0 -7 -6 -18 -27 -3 -0 -0 -0 -0 -0 -0 -0 -0 -0 -0 -0 -0 -0
Wind_Speed
19 18 19 17 17 13 13 16 17 11 7 6 6 7 11 14 8 8 12 27 16 17 21 22 22 26 25 16 21 19 19 20 26 24 22 18 20 19 20 17 12 12 8
9 6 10 11 12 13 10 15 13 15 9 10 9 9 10 9 15 21 20 19 22 22 21 22 24 22 21 27 20 22 23 19 20 26 27 26 19 19 19 20 18 14 17
8 8 10 9 13 15 9 10 9 8 9 10 8 9 11 14 17 19 21 21 23 24 23 23 25 25 22 23 23 24 20 18 19 20 24 19 22 22 19 17 17 16 17
5 7 8 11 14 15 11 8 8 8 8 8 9 10 12 16 18 20 20 23 26 29 30 29 27 24 20 18 21 24 23 24 24 23 23 21 18 18 20 21 18 14 16
6 6 7 7 7 8 9 8 8 9 9 11 12 12 15 17 19 19 23 28 28 31 34 32 28 25 21 21 18 21 27 27 27 24 23 22 22 21 21 20 19 18 15
4 4 6 5 6 7 7 8 8 9 11 14 16 15 15 18 17 18 23 24 28 32 35 32 31 32 28 25 23 27 27 27 28 29 28 26 26 26 22 20 20 19 19
7 8 6 5 4 4 6 7 10 10 10 11 14 15 15 17 23 24 23 25 32 32 33 34 32 31 26 27 26 27 29 29 26 27 27 28 29 25 25 25 24 23 19
7 9 11 11 10 9 7 8 8 7 10 12 10 11 14 19 19 23 24 29 31 33 33 34 33 33 31 30 29 29 29 28 26 26 26 25 27 26 23 24 23 22 20
8 10 12 12 12 11 9 8 10 11 13 13 10 10 12 15 18 15 20 24 26 31 30 32 34 34 33 31 33 32 33 33 28 27 28 26 25 26 23 22 23 22 24
7 9 11 10 10 10 11 10 11 10 9 9 10 13 14 13 17 16 16 20 27 27 27 29 33 35 36 33 33 33 35 34 31 27 26 27 26 26 24 23 26 25 26
6 7 9 9 10 10 10 11 11 11 11 11 11 12 14 15 17 20 18 15 19 29 29 31 35 31 35 36 34 35 34 34 33 30 25 24 22 22 22 22 25 25 25
7 8 9 10 11 11 11 12 12 12 12 13 13 14 14 15 17 19 20 18 17 20 27 29 28 32 33 34 35 35 34 36 32 29 28 24 23 23 23 23 23 24 25
7 8 9 10 11 12 12 12 12 12 12 13 15 16 16 17 17 18 19 17 16 15 18 18 19 23 24 27 30 32 28 27 24 25 22 24 23 21 19 20 18 20 15
8 9 10 11 11 12 12 13 13 12 12 13 14 15 16 16 17 18 17 17 17 17 17 18 20 20 21 21 20 19 16 16 20 24 21 18 17 16 14 12 13 11 12
10 11 12 13 12 13 15 15 14 15 14 14 14 15 15 16 16 17 17 16 16 16 16 17 18 19 20 21 20 19 18 16 15 16 18 14 10 7 8 9 8 9 9
11 12 13 14 13 13 11 12 15 15 15 15 15 16 15 15 14 14 14 15 15 15 16 18 17 16 17 19 19 19 19 15 12 10 9 8 8 6 8 9 10 10 9
11 12 14 14 12 9 9 10 12 14 15 15 15 14 14 13 13 12 12 13 14 14 15 15 15 15 15 16 16 16 17 16 14 11 9 8 10 10 9 10 9 8 9
11 13 13 10 8 8 9 10 11 11 12 13 14 13 13 13 13 13 13 13 13 13 14 14 15 14 16 16 16 15 14 14 13 12 12 12 11 10 10 11 12 12 11
9 8 9 8 7 7 7 8 10 12 11 11 11 12 12 12 12 12 12 13 12 13 13 14 15 15 14 14 13 12 11 12 12 12 11 11 10 11 10 10 9 9 8
5 7 6 5 6 5 7 8 10 12 11 10 10 10 11 12 11 11 11 10 11 12 12 11 11 13 12 13 12 12 11 11 10 11 10 10 9 9 9 8 8 8 7
2 1 4 4 4 6 7 10 11 10 10 11 11 12 13 13 12 13 13 12 12 12 11 13 14 14 13 14 12 11 11 10 10 10 9 9 8 8 7 8 8 7 8
2 1 0 3 5 8 8 10 9 9 9 10 11 13 13 13 13 13 14 14 13 12 12 12 13 13 13 13 12 11 10 10 10 9 8 8 7 7 7 7 6 6 7
1 1 1 4 7 8 10 10 7 7 8 9 11 12 12 12 12 12 12 11 11 11 11 10 11 11 11 11 10 10 9 9 9 8 7 7 6 6 6 6 6 7 7
1 1 3 5 7 6 5 7 7 10 9 8 9 10 11 12 12 11 10 10 9 9 10 10 10 10 10 9 9 9 9 9 9 7 7 8 8 8 7 7 7 7 7
2 7 8 7 5 8 6 8 6 6 5 8 9 10 10 10 10 10 10 9 8 8 9 9 10 10 10 9 9 9 10 8 7 8 7 6 5 6 5 4 5 6 5
6 9 10 9 8 4 6 6 10 9 8 9 10 11 11 11 10 9 9 9 9 9 9 9 9 9 10 9 8 7 7 5 4 3 3 4 3 3 4 4 5 6 7
Wind_Direction
160 166 173 176 179 179 182 183 188 194 214 235 255 274 288 287 280 284 294 279 298 295 291 293 294 287 289 313 301 306 306 306 291 299 312 327 323 322 317 332 351 350 6
172 186 176 175 176 181 189 185 187 191 202 208 217 267 279 279 288 288 289 290 286 287 291 292 292 298 298 287 303 299 300 311 310 301 302 303 322 317 321 323 327 337 329
186 191 195 197 190 189 198 198 206 210 206 203 225 240 266 279 282 287 288 289 286 286 289 292 291 291 295 294 293 295 306 312 311 312 308 319 311 310 321 327 325 327 328
194 192 196 192 192 192 200 223 220 231 250 248 260 258 270 278 280 283 282 283 282 279 281 284 288 290 293 298 296 293 297 301 304 306 307 311 315 316 315 314 318 325 326
201 209 206 206 204 206 210 228 249 255 252 268 277 275 281 285 283 282 284 281 281 279 276 281 286 288 289 289 295 296 291 295 298 303 305 307 309 311 311 315 314 318 324
247 214 202 211 224 228 225 234 249 262 270 278 280 277 280 284 285 282 282 285 284 281 278 280 281 283 286 286 286 287 291 294 295 295 297 299 302 305 310 311 310 310 311
293 293 294 291 253 243 253 266 275 275 277 274 282 281 281 284 291 292 288 289 284 281 280 279 280 282 283 284 285 286 288 290 292 294 294 296 298 302 304 304 305 306 307
313 305 302 305 307 306 300 292 289 279 283 284 278 277 285 290 293 293 294 294 287 279 278 279 279 280 280 281 284 286 288 291 292 290 290 294 296 299 302 304 305 307 312
326 311 306 313 315 316 318 316 309 305 301 299 295 287 287 291 295 296 301 300 291 280 284 283 281 280 281 281 280 282 285 287 293 292 292 293 296 297 300 303 301 302 303
339 319 317 330 335 335 335 339 338 342 340 332 323 319 315 307 306 301 297 296 292 292 294 288 283 282 283 284 283 282 282 285 287 289 292 290 292 293 295 296 299 297 300
18 355 348 351 347 351 353 353 354 350 349 350 351 343 332 325 319 313 311 303 295 292 296 291 284 289 287 285 285 285 283 285 284 284 286 289 291 293 297 297 299 299 300
0 356 353 356 354 352 350 350 348 354 356 355 353 352 351 345 337 330 324 317 312 306 299 300 300 298 294 290 287 287 286 281 282 281 282 284 287 291 295 299 301 302 303
349 348 350 353 351 347 346 344 345 344 345 349 346 345 348 351 350 345 340 339 337 333 325 328 322 319 318 308 303 289 287 281 281 280 282 283 288 293 299 302 308 311 315
334 335 338 343 343 345 346 343 341 345 344 345 349 346 346 349 349 351 350 348 345 342 339 334 333 329 334 332 337 331 313 296 294 290 287 286 285 293 299 304 316 320 333
328 325 328 331 333 335 334 334 339 340 340 344 346 343 342 342 348 350 350 350 352 352 353 350 348 355 353 347 335 326 321 327 333 331 312 295 288 298 307 317 347 333 348
323 322 322 325 330 331 341 347 345 347 347 344 343 340 346 347 353 355 0 4 6 1 351 341 339 341 348 350 352 358 6 355 333 344 316 335 17 339 325 329 316 332 347
328 328 327 324 328 338 348 350 346 349 352 353 352 355 357 4 9 19 24 21 20 17 6 2 356 353 346 351 354 355 1 10 15 350 348 338 302 328 341 351 357 21 39
325 321 330 333 339 345 347 350 355 357 358 357 0 11 25 33 31 29 24 19 23 23 8 1 353 7 353 351 355 2 32 44 39 50 60 69 61 65 71 79 87 84 77
328 332 336 335 338 342 355 360 359 352 350 2 22 21 33 40 40 37 38 28 31 22 14 360 350 350 357 11 22 43 64 72 83 83 80 79 80 87 79 75 62 49 59
328 324 338 344 341 355 359 359 340 333 348 17 23 33 68 77 72 90 95 71 62 32 18 41 39 15 34 30 35 37 65 73 72 77 72 67 72 74 70 62 52 47 41
338 346 319 332 344 340 334 324 327 336 359 3 22 45 75 103 92 115 117 114 99 63 31 359 355 356 2 357 12 26 40 45 44 47 46 44 46 50 52 45 40 44 37
325 351 205 312 315 310 314 311 325 345 0 15 30 49 81 110 100 106 110 112 102 80 39 15 6 9 6 4 13 36 47 50 59 65 58 59 56 48 38 32 33 28 20
322 133 222 295 299 302 297 304 337 356 22 29 36 45 65 77 74 81 76 79 74 82 75 64 50 36 34 40 48 51 49 46 48 53 46 34 27 20 15 12 8 3 360
292 166 272 283 290 305 316 311 318 309 332 21 32 33 35 40 55 61 62 58 55 48 38 33 30 28 29 43 45 49 40 28 25 29 13 4 357 358 0 4 2 357 354
262 272 272 275 294 289 305 306 325 340 357 350 358 359 8 17 21 27 34 35 37 32 26 20 16 16 20 20 22 30 22 38 71 61 92 78 46 23 16 16 6 355 353
270 265 267 274 284 295 308 319 309 315 326 333 339 344 349 353 359 5 8 10 12 9 3 7 5 2 359 6 12 15 15 31 39 42 36 13 13 2 353 343 334 333 327